This demonstration page uses our WeatherBlox Daily Observations layout. Learn more.

Left ArrowRight Arrow

Hourly Observations for May 1, 2018

Temp ( °F °C ) Dew Point ( °F °C ) Humidity (%) Winds ( mph kmh ) Pressure ( in mb ) Visibility ( mi km ) Precip ( " mm )
12:53 am 00:53 Mostly Clear 60 15.6 34 1.1 38 38 N 10 17 29.89 1012 10 16 0.00 0.00
1:53 am 01:53 Clear 58 14.4 33 0.6 39 39 undefined N/A 29.88 1012 10 16 0.00 0.00
2:53 am 02:53 Clear 57 13.9 32 0 39 39 NNW 12 19 29.87 1012 10 16 0.00 0.00
3:53 am 03:53 Clear 57 13.9 32 0 39 39 NNW 9 15 29.88 1012 10 16 0.00 0.00
4:53 am 04:53 Clear 55 12.8 33 0.6 44 44 NW 7 11 29.86 1011 10 16 0.00 0.00
5:53 am 05:53 Clear 55 12.8 34 1.1 45 45 NNW 12 19 29.84 1011 10 16 0.00 0.00
6:53 am 06:53 Sunny 55 13 34 1 44 44 N 12 19 29.88 1012 10 16 0.00 0.00
7:53 am 07:53 Sunny 58 14.4 35 1.7 42 42 N 10 17 29.87 1011 10 16 0.00 0.00
8:53 am 08:53 Sunny 63 17 N/A N/A NNW 13 20 29.88 1012 10 16 0.00 0.00
9:53 am 09:53 Sunny 65 18.3 38 3.3 37 37 undefined N/A 29.87 1011 10 16 0.00 0.00
10:53 am 10:53 Sunny 67 19.4 38 3.3 35 35 NNW 12 19 29.85 1011 10 16 0.00 0.00
11:53 am 11:53 Sunny 69 20.6 39 3.9 33 33 N 10 17 29.83 1010 10 16 0.00 0.00
12:53 pm 12:53 Sunny 72 22.2 40 4.4 31 31 NNE 9 15 29.83 1010 10 16 0.00 0.00
1:53 pm 13:53 Sunny 75 23.9 40 4.4 28 28 ENE 10 17 29.80 1009 10 16 0.00 0.00
2:53 pm 14:53 Sunny 76 24.4 39 3.9 26 26 NE 5 7 29.78 1008 10 16 0.00 0.00
3:53 pm 15:53 Sunny 78 25.6 32 0 19 19 NE 7 11 29.74 1007 10 16 0.00 0.00
4:53 pm 16:53 Sunny 78 25.6 35 1.7 21 21 NNE 8 13 29.72 1006 10 16 0.00 0.00
5:53 pm 17:53 Sunny 77 25 35 1.7 22 22 N 9 15 29.71 1006 10 16 0.00 0.00
6:53 pm 18:53 Sunny 77 25 35 1.7 22 22 ENE 3 6 29.71 1006 10 16 0.00 0.00
7:53 pm 19:53 Sunny 70 21.1 36 2.2 29 29 NE 12 19 29.73 1007 10 16 0.00 0.00
8:53 pm 20:53 Clear 67 19.4 39 3.9 36 36 NNE 7 11 29.76 1008 10 16 0.00 0.00
9:53 pm 21:53 Clear 65 18.3 37 2.8 36 36 N 7 11 29.78 1009 10 16 0.00 0.00
10:53 pm 22:53 Clear 65 18.3 36 2.2 34 34 N 10 17 29.81 1009 10 16 0.00 0.00
11:53 pm 23:53 Clear 64 17.8 36 2.2 35 35 NNW 9 15 29.83 1010 10 16 0.00 0.00

Powered by AerisWeather